Regional Weather Roundup
Issued by NWS

Home | Current Version | Previous Version | Text Only | Print | Product List | Glossary On
Versions: 1 2 3 4 5 6 7 8 9 10 11 12 13 14 15 16 17 18 19 20 21 22 23 24 25 26 27 28 29 30 31 32 33 34 35 36 37 38 39 40 41 42 43 44 45 46 47 48 49 50
000
ASUS43 KTOP 021808
RWRKS

WEATHER ROUNDUP FOR KANSAS
NATIONAL WEATHER SERVICE GOODLAND KS
100 PM CDT SUN AUG 02 2015

NOTE:  "FAIR" INDICATES FEW OR NO CLOUDS BELOW 12,000 FEET WITH NO
SIGNIFICANT WEATHER AND/OR OBSTRUCTIONS TO VISIBILITY.

KSZ001>006-013>018-027>032-041>047-021900-
NORTHWEST KANSAS

CITY           SKY/WX    TMP DP  RH WIND       PRES   REMARKS
GOODLAND       SUNNY     89  56  32 S7        30.00F
6HR MIN TEMP:  65; 6HR MAX TEMP:  90;

HAYS           MOSUNNY   91  64  40 SW5       29.92F
HILL CITY      SUNNY     92  68  45 SW8       29.93F HX  96
6HR MIN TEMP:  68; 6HR MAX TEMP:  94;

RUSSELL        MOSUNNY   91  68  46 S9        29.90F HX  95
6HR MIN TEMP:  70; 6HR MAX TEMP:  92;

$$

KSZ061>065-074>080-084>089-021900-
SOUTHWEST KANSAS

CITY           SKY/WX    TMP DP  RH WIND       PRES   REMARKS
DODGE CITY     SUNNY     86  64  47 SW8       29.97F
6HR MIN TEMP:  67; 6HR MAX TEMP:  87;

ELKHART          N/A     84  68  58 SE6         N/A
GARDEN CITY    SUNNY     85  66  53 S6        29.97F
6HR MIN TEMP:  68; 6HR MAX TEMP:  86;

GREAT BEND     SUNNY     88  70  55 S14       29.92F
LIBERAL        SUNNY     88  66  48 S7        29.97F
PRATT          SUNNY     86  68  54 S10G16    29.96F
$$

KSZ066>073-081>083-090>101-021900-
SOUTHEAST KANSAS

CITY           SKY/WX    TMP DP  RH WIND       PRES   REMARKS
CHANUTE        SUNNY     90  66  45 S14G24    29.94F
6HR MIN TEMP:  69; 6HR MAX TEMP:  91;

COFFEYVILLE    SUNNY     92  64  39 SW14      29.95F
6HR MIN TEMP:  67; 6HR MAX TEMP:  92;

HUTCHINSON     SUNNY     90  69  50 SW15      29.93F
6HR MIN TEMP:  71; 6HR MAX TEMP:  90;

MEDICINE LODGE   N/A     87  71  58 S12G17    29.93F
NEWTON         SUNNY     88  68  51 SW16      29.96F
PARSONS        SUNNY     90  66  45 SW15G22   29.96F
6HR MIN TEMP:  66; 6HR MAX TEMP:  91;

WICHITA INTL   MOSUNNY   87  70  56 S13       29.94F
6HR MIN TEMP:  71; 6HR MAX TEMP:  88;

WICHITA JABRA  SUNNY     88  69  53 S12G21    29.94F
6HR MIN TEMP:  70; 6HR MAX TEMP:  88;

WICHITA MCCONL MOSUNNY   87  70  57 S13       29.94F
WINFIELD       PTSUNNY   88  70  55 S10       29.96F
6HR MIN TEMP:  70; 6HR MAX TEMP:  88;

$$

KSZ007>012-019>026-033>040-048>060-102>105-021900-
NORTHEAST KANSAS

CITY           SKY/WX    TMP DP  RH WIND       PRES   REMARKS
CONCORDIA      SUNNY     92  68  45 W9        29.89F HX  96
6HR MIN TEMP:  72; 6HR MAX TEMP:  92;

EMPORIA        SUNNY     90  67  46 SW16      29.92F
6HR MIN TEMP:  69; 6HR MAX TEMP:  90;

LAWRENCE       SUNNY     90  67  46 SW12      29.91F
6HR MIN TEMP:  70; 6HR MAX TEMP:  90;

MANHATTAN      SUNNY     91  71  51 SW9       29.89F HX  97
6HR MIN TEMP:  72; 6HR MAX TEMP:  92;

MARYSVILLE     SUNNY    N/A N/A N/A SW13      29.88F
OLATHE IND     SUNNY     91  65  41 SW14      29.93F
6HR MIN TEMP:  72; 6HR MAX TEMP:  91;

OLATHE EXE     SUNNY     89  66  46 W12       29.92F
6HR MIN TEMP:  69; 6HR MAX TEMP:  89;

SALINA         SUNNY     93  68  43 S10       29.90F HX  97
6HR MIN TEMP:  73; 6HR MAX TEMP:  94;

TOPEKA BILLARD SUNNY     90  68  48 SW10      29.90F
6HR MIN TEMP:  74; 6HR MAX TEMP:  90;

TOPEKA FORBES  SUNNY     91  67  44 SW14      29.91F
6HR MIN TEMP:  73; 6HR MAX TEMP:  91;

$$



USA.gov is the U.S. government's official web portal to all federal, state and local government web resources and services.